JA86GR NZWN-NZAA

Flight info

Callsign JA86GR
Flight time 0h 52m
Altitude 25000
Route RUSIL Y127 OPABI Q277 DAVEE
Aircraft HDJT/L-SABDGRWY/H

Departure

Time 2026-05-03 21:07
Airport Wellington International Airport (NZWN)

Arrival

Time 2026-05-03 22:00
Airport Auckland International Airport (NZAA)
Time Latitude Longitude Altitude Speed Heading
2026-05-03 21:07 -41.25182 174.80166 3411 ft 201 kts 345°
2026-05-03 21:07 -41.23781 174.79702 4107 ft 217 kts 343°
2026-05-03 21:07 -41.22805 174.79366 4696 ft 218 kts 343°
2026-05-03 21:08 -41.21308 174.78841 5565 ft 224 kts 343°
2026-05-03 21:08 -41.19790 174.78317 6425 ft 229 kts 342°
2026-05-03 21:08 -41.18226 174.77776 7259 ft 235 kts 343°
2026-05-03 21:08 -41.16630 174.77256 8081 ft 241 kts 348°
2026-05-03 21:09 -41.14363 174.77358 9199 ft 249 kts
2026-05-03 21:09 -41.13184 174.77468 9784 ft 251 kts
2026-05-03 21:09 -41.11450 174.77584 10607 ft 255 kts
2026-05-03 21:09 -41.09664 174.77725 11408 ft 257 kts
2026-05-03 21:10 -41.07889 174.77886 12220 ft 258 kts
2026-05-03 21:10 -41.06078 174.78046 13034 ft 260 kts
2026-05-03 21:10 -41.04279 174.78196 13861 ft 261 kts
2026-05-03 21:10 -41.02456 174.78349 14645 ft 262 kts
2026-05-03 21:11 -41.00618 174.78506 15347 ft 265 kts
2026-05-03 21:11 -40.98785 174.78662 16037 ft 267 kts
2026-05-03 21:11 -40.96915 174.78821 16733 ft 269 kts
2026-05-03 21:11 -40.95056 174.78979 17408 ft 272 kts
2026-05-03 21:12 -40.93154 174.79140 18097 ft 274 kts
2026-05-03 21:12 -40.91233 174.79304 18778 ft 276 kts
2026-05-03 21:12 -40.89317 174.79467 19361 ft 279 kts
2026-05-03 21:12 -40.87362 174.79632 19952 ft 281 kts
2026-05-03 21:13 -40.85418 174.79797 20534 ft 283 kts
2026-05-03 21:13 -40.83440 174.79965 21110 ft 285 kts
2026-05-03 21:13 -40.81474 174.80131 21679 ft 287 kts
2026-05-03 21:13 -40.79463 174.80302 22257 ft 289 kts
2026-05-03 21:14 -40.77436 174.80473 22835 ft 292 kts
2026-05-03 21:14 -40.75420 174.80643 23404 ft 294 kts
2026-05-03 21:14 -40.73357 174.80818 23987 ft 296 kts
2026-05-03 21:14 -40.71314 174.80990 24474 ft 298 kts
2026-05-03 21:15 -40.69217 174.81167 24951 ft 301 kts
2026-05-03 21:15 -40.67146 174.81342 25427 ft 302 kts
2026-05-03 21:15 -40.64986 174.81429 25561 ft 318 kts 359°
2026-05-03 21:15 -40.62755 174.81396 25573 ft 334 kts 359°
2026-05-03 21:16 -40.60403 174.81374 25578 ft 349 kts 360°
2026-05-03 21:16 -40.57919 174.81376 25575 ft 362 kts 360°
2026-05-03 21:16 -40.55377 174.81370 25574 ft 372 kts 359°
2026-05-03 21:16 -40.52744 174.81347 25576 ft 380 kts 359°
2026-05-03 21:17 -40.50063 174.81337 25575 ft 387 kts 360°
2026-05-03 21:17 -40.47371 174.81335 25578 ft 391 kts 360°
2026-05-03 21:17 -40.44649 174.81317 25575 ft 389 kts 360°
2026-05-03 21:17 -40.41968 174.81302 25575 ft 388 kts 360°
2026-05-03 21:18 -40.39262 174.81297 25575 ft 388 kts 360°
2026-05-03 21:18 -40.36539 174.81284 25575 ft 388 kts 360°
2026-05-03 21:18 -40.34748 174.81272 25576 ft 388 kts 360°
2026-05-03 21:19 -40.32262 174.81262 25574 ft 388 kts
2026-05-03 21:19 -40.29675 174.81257 25578 ft 387 kts
2026-05-03 21:19 -40.26975 174.81242 25576 ft 388 kts 360°
2026-05-03 21:19 -40.24268 174.81227 25578 ft 388 kts
2026-05-03 21:20 -40.21558 174.81219 25577 ft 388 kts
2026-05-03 21:20 -40.18884 174.81209 25577 ft 388 kts
2026-05-03 21:20 -40.16179 174.81194 25576 ft 388 kts
2026-05-03 21:20 -40.13465 174.81183 25582 ft 388 kts
2026-05-03 21:21 -40.10795 174.81174 25582 ft 388 kts
2026-05-03 21:21 -40.08076 174.81162 25580 ft 388 kts
2026-05-03 21:21 -40.05368 174.81149 25583 ft 388 kts
2026-05-03 21:21 -40.02690 174.81138 25583 ft 388 kts
2026-05-03 21:22 -39.99979 174.81127 25583 ft 388 kts
2026-05-03 21:22 -39.97300 174.81115 25585 ft 388 kts
2026-05-03 21:22 -39.94583 174.81103 25588 ft 388 kts
2026-05-03 21:22 -39.91900 174.81092 25589 ft 388 kts
2026-05-03 21:23 -39.89191 174.81081 25590 ft 388 kts
2026-05-03 21:23 -39.86479 174.81070 25593 ft 388 kts
2026-05-03 21:23 -39.83797 174.81058 25592 ft 389 kts
2026-05-03 21:23 -39.81084 174.81046 25593 ft 389 kts
2026-05-03 21:24 -39.78395 174.81035 25594 ft 389 kts
2026-05-03 21:24 -39.75681 174.81023 25595 ft 389 kts
2026-05-03 21:24 -39.72961 174.81013 25600 ft 389 kts
2026-05-03 21:24 -39.70276 174.81002 25601 ft 389 kts
2026-05-03 21:25 -39.67553 174.80987 25599 ft 389 kts
2026-05-03 21:25 -39.64846 174.80977 25599 ft 389 kts
2026-05-03 21:25 -39.62154 174.80968 25604 ft 389 kts
2026-05-03 21:25 -39.59440 174.80955 25603 ft 389 kts
2026-05-03 21:26 -39.56735 174.80942 25604 ft 389 kts
2026-05-03 21:26 -39.54028 174.80933 25605 ft 389 kts
2026-05-03 21:26 -39.51344 174.80923 25607 ft 389 kts
2026-05-03 21:26 -39.48624 174.80909 25603 ft 388 kts
2026-05-03 21:27 -39.45948 174.80896 25608 ft 389 kts
2026-05-03 21:27 -39.43223 174.80888 25605 ft 389 kts
2026-05-03 21:27 -39.40514 174.80876 25606 ft 388 kts
2026-05-03 21:27 -39.37842 174.80865 25609 ft 388 kts
2026-05-03 21:28 -39.35130 174.80853 25608 ft 388 kts
2026-05-03 21:28 -39.32420 174.80842 25604 ft 388 kts
2026-05-03 21:28 -39.29741 174.80829 25609 ft 388 kts
2026-05-03 21:28 -39.27023 174.80817 25609 ft 388 kts
2026-05-03 21:29 -39.24349 174.80810 25612 ft 388 kts
2026-05-03 21:29 -39.21646 174.80796 25612 ft 388 kts
2026-05-03 21:29 -39.18939 174.80784 25613 ft 388 kts
2026-05-03 21:29 -39.16252 174.80777 25612 ft 388 kts
2026-05-03 21:30 -39.13532 174.80772 25612 ft 388 kts
2026-05-03 21:30 -39.10848 174.80757 25617 ft 388 kts
2026-05-03 21:30 -39.08170 174.80748 25614 ft 387 kts
2026-05-03 21:30 -39.05466 174.80742 25612 ft 387 kts
2026-05-03 21:31 -39.02764 174.80731 25617 ft 387 kts
2026-05-03 21:31 -39.00095 174.80719 25614 ft 388 kts
2026-05-03 21:31 -38.97385 174.80713 25611 ft 387 kts
2026-05-03 21:31 -38.94677 174.80706 25611 ft 387 kts
2026-05-03 21:32 -38.92006 174.80693 25609 ft 387 kts
2026-05-03 21:32 -38.89305 174.80684 25614 ft 387 kts
2026-05-03 21:32 -38.86627 174.80677 25613 ft 387 kts
2026-05-03 21:32 -38.83922 174.80665 25617 ft 387 kts
2026-05-03 21:33 -38.81255 174.80657 25617 ft 387 kts
2026-05-03 21:33 -38.78537 174.80662 25612 ft 386 kts
2026-05-03 21:33 -38.75877 174.80663 25618 ft 386 kts
2026-05-03 21:33 -38.73166 174.80657 25615 ft 386 kts
2026-05-03 21:34 -38.70498 174.80658 25615 ft 386 kts
2026-05-03 21:34 -38.67825 174.80659 25615 ft 386 kts
2026-05-03 21:34 -38.65120 174.80658 25615 ft 386 kts
2026-05-03 21:34 -38.62419 174.80655 25613 ft 386 kts
2026-05-03 21:35 -38.59756 174.80656 25614 ft 386 kts
2026-05-03 21:35 -38.57066 174.80655 25612 ft 386 kts
2026-05-03 21:35 -38.54370 174.80655 25618 ft 386 kts
2026-05-03 21:35 -38.51716 174.80653 25608 ft 385 kts
2026-05-03 21:36 -38.49033 174.80650 25615 ft 386 kts
2026-05-03 21:36 -38.46332 174.80650 25612 ft 385 kts
2026-05-03 21:36 -38.43651 174.80652 25610 ft 385 kts
2026-05-03 21:36 -38.40967 174.80651 25609 ft 385 kts
2026-05-03 21:37 -38.38312 174.80648 25609 ft 385 kts
2026-05-03 21:37 -38.35622 174.80645 25609 ft 385 kts
2026-05-03 21:37 -38.32933 174.80646 25610 ft 385 kts
2026-05-03 21:37 -38.30282 174.80649 25606 ft 385 kts
2026-05-03 21:38 -38.27597 174.80642 25605 ft 384 kts
2026-05-03 21:38 -38.24911 174.80641 25603 ft 384 kts
2026-05-03 21:38 -38.22255 174.80647 25611 ft 385 kts
2026-05-03 21:38 -38.19596 174.80643 25611 ft 384 kts
2026-05-03 21:39 -38.16916 174.80637 25603 ft 384 kts
2026-05-03 21:39 -38.14220 174.80642 25609 ft 384 kts
2026-05-03 21:39 -38.11572 174.80645 25611 ft 384 kts
2026-05-03 21:39 -38.08897 174.80638 25602 ft 384 kts
2026-05-03 21:40 -38.06241 174.80634 25599 ft 384 kts
2026-05-03 21:40 -38.03566 174.80640 25607 ft 384 kts
2026-05-03 21:40 -38.00888 174.80638 25553 ft 378 kts
2026-05-03 21:40 -37.98329 174.80630 25147 ft 359 kts
2026-05-03 21:41 -37.95872 174.80633 24694 ft 352 kts
2026-05-03 21:41 -37.93452 174.80637 24253 ft 348 kts
2026-05-03 21:41 -37.91029 174.80631 23759 ft 344 kts
2026-05-03 21:41 -37.88635 174.80631 23307 ft 342 kts
2026-05-03 21:42 -37.86281 174.80631 22862 ft 341 kts
2026-05-03 21:42 -37.83912 174.80661 22415 ft 339 kts
2026-05-03 21:42 -37.81554 174.80712 21970 ft 337 kts
2026-05-03 21:42 -37.79235 174.80738 21533 ft 335 kts
2026-05-03 21:43 -37.76903 174.80758 21094 ft 333 kts
2026-05-03 21:43 -37.74590 174.80794 20656 ft 331 kts
2026-05-03 21:43 -37.72321 174.80826 20230 ft 329 kts
2026-05-03 21:43 -37.70020 174.80848 19798 ft 327 kts
2026-05-03 21:44 -37.67773 174.80879 19374 ft 325 kts
2026-05-03 21:44 -37.65506 174.80911 18950 ft 323 kts
2026-05-03 21:44 -37.63280 174.80936 18491 ft 321 kts
2026-05-03 21:44 -37.61041 174.80966 18064 ft 319 kts
2026-05-03 21:45 -37.58820 174.81047 17647 ft 317 kts
2026-05-03 21:45 -37.56625 174.81676 17215 ft 335 kts 17°
2026-05-03 21:45 -37.54340 174.82395 16751 ft 337 kts 14°
2026-05-03 21:45 -37.52051 174.82991 16305 ft 335 kts 13°
2026-05-03 21:46 -37.49807 174.83626 15870 ft 333 kts 15°
2026-05-03 21:46 -37.47557 174.84334 15431 ft 331 kts 15°
2026-05-03 21:46 -37.45338 174.84993 15001 ft 330 kts 14°
2026-05-03 21:46 -37.43111 174.85621 14418 ft 325 kts 14°
2026-05-03 21:47 -37.40964 174.86250 13606 ft 309 kts 15°
2026-05-03 21:47 -37.38940 174.86855 13167 ft 287 kts 15°
2026-05-03 21:47 -37.37057 174.87400 12810 ft 267 kts 15°
2026-05-03 21:47 -37.35322 174.87906 12501 ft 251 kts 15°
2026-05-03 21:48 -37.33633 174.88406 12190 ft 246 kts 15°
2026-05-03 21:48 -37.31960 174.88898 11875 ft 246 kts 15°
2026-05-03 21:48 -37.30308 174.89381 11556 ft 245 kts 15°
2026-05-03 21:48 -37.28636 174.89868 11232 ft 245 kts 15°
2026-05-03 21:49 -37.26995 174.90348 10906 ft 243 kts 15°
2026-05-03 21:49 -37.25341 174.90831 10587 ft 243 kts 15°
2026-05-03 21:49 -37.23694 174.91313 10243 ft 241 kts 15°
2026-05-03 21:49 -37.22079 174.91784 9925 ft 240 kts 15°
2026-05-03 21:50 -37.20451 174.92259 9608 ft 239 kts 15°
2026-05-03 21:50 -37.18827 174.92735 9287 ft 238 kts 15°
2026-05-03 21:50 -37.17234 174.93198 8976 ft 237 kts 15°
2026-05-03 21:50 -37.15653 174.93679 8665 ft 235 kts 20°
2026-05-03 21:51 -37.14240 174.94576 8362 ft 231 kts 37°
2026-05-03 21:51 -37.13017 174.95838 8065 ft 229 kts 43°
2026-05-03 21:51 -37.11792 174.97126 7758 ft 228 kts 41°
2026-05-03 21:51 -37.10582 174.98382 7461 ft 227 kts 41°
2026-05-03 21:52 -37.09371 174.99646 7163 ft 225 kts 42°
2026-05-03 21:52 -37.08178 175.00894 6864 ft 225 kts 42°
2026-05-03 21:52 -37.06977 175.02148 6551 ft 223 kts 42°
2026-05-03 21:52 -37.05797 175.03380 6267 ft 223 kts 42°
2026-05-03 21:53 -37.04607 175.04621 5976 ft 222 kts 41°
2026-05-03 21:53 -37.03367 175.05741 5682 ft 223 kts 28°
2026-05-03 21:53 -37.01881 175.06346 5394 ft 225 kts 12°
2026-05-03 21:53 -37.00309 175.06370 5086 ft 225 kts 354°
2026-05-03 21:54 -36.98815 175.05842 4786 ft 224 kts 341°
2026-05-03 21:54 -36.97348 175.05184 4488 ft 221 kts 343°
2026-05-03 21:54 -36.95912 175.04583 4195 ft 219 kts 343°
2026-05-03 21:54 -36.94476 175.03963 3911 ft 216 kts 343°
2026-05-03 21:55 -36.93117 175.03220 3588 ft 217 kts 326°
2026-05-03 21:55 -36.92272 175.01723 3571 ft 204 kts 288°
2026-05-03 21:55 -36.92337 175.00082 3654 ft 184 kts 248°
2026-05-03 21:55 -36.93162 174.98988 3621 ft 172 kts 207°
2026-05-03 21:56 -36.94243 174.98330 3287 ft 171 kts 204°
2026-05-03 21:56 -36.95267 174.97609 2931 ft 167 kts 214°
2026-05-03 21:56 -36.96068 174.96617 2708 ft 159 kts 234°
2026-05-03 21:56 -36.96548 174.95322 2514 ft 165 kts 249°
2026-05-03 21:57 -36.96951 174.93985 2299 ft 163 kts 250°
2026-05-03 21:57 -36.97331 174.92665 2068 ft 161 kts 251°
2026-05-03 21:57 -36.97687 174.91335 1842 ft 160 kts 251°
2026-05-03 21:57 -36.98055 174.90037 1626 ft 159 kts 250°
2026-05-03 21:58 -36.98411 174.88726 1410 ft 158 kts 250°
2026-05-03 21:58 -36.98770 174.87433 1203 ft 157 kts 249°
2026-05-03 21:58 -36.99123 174.86155 1001 ft 155 kts 248°
2026-05-03 21:58 -36.99474 174.84889 783 ft 152 kts 248°
2026-05-03 21:59 -36.99814 174.83661 570 ft 149 kts 250°
2026-05-03 21:59 -37.00134 174.82511 389 ft 127 kts 248°
2026-05-03 21:59 -37.00402 174.81566 167 ft 109 kts 248°
2026-05-03 21:59 -37.00638 174.80681 56 ft 106 kts 248°
2026-05-03 22:00 -37.00857 174.79915 30 ft 65 kts 247°
2026-05-03 22:00 -37.00916 174.79623 27 ft 23 kts 268°
2026-05-03 22:00 -37.00913 174.79433 26 ft 20 kts 273°
2026-05-03 22:00 -37.00883 174.79311 29 ft 9 kts 277°
2026-05-03 22:01 -37.00879 174.79235 29 ft 16 kts 272°
2026-05-03 22:01 -37.00821 174.79081 30 ft 19 kts 295°
2026-05-03 22:01 -37.00838 174.78940 30 ft 14 kts 257°
2026-05-03 22:01 -37.00875 174.78849 30 ft 8 kts 233°
2026-05-03 22:02 -37.00878 174.78824 30 ft 4 kts 278°
2026-05-03 22:02 -37.00886 174.78760 30 ft 12 kts 254°
2026-05-03 22:02 -37.00926 174.78619 31 ft 21 kts 253°
2026-05-03 22:02 -37.00975 174.78435 31 ft 24 kts 244°
2026-05-03 22:03 -37.01021 174.78224 31 ft 25 kts 249°
2026-05-03 22:03 -37.01057 174.78092 31 ft 23 kts 263°
2026-05-03 22:03 -37.01009 174.77959 31 ft 9 kts 260°
2026-05-03 22:03 -37.01025 174.77898 31 ft 6 kts 257°
2026-05-03 22:04 -37.01023 174.77891 31 ft 1 kts 337°
2026-05-03 22:04 -37.01010 174.77885 31 ft 5 kts 338°
2026-05-03 22:04 -37.00983 174.77873 31 ft 5 kts 340°
2026-05-03 22:04 -37.00945 174.77857 31 ft 0 kts 342°